"Time","Temp","Dewpoint","Humidity","Pressure","Direction","Speed","Gust","Precip","PrecipRate"
"00:04:57","55.1","36.6","49.6","29.97","331","0.2","1.2","0.00","0.00"
"00:09:57","54.9","36.8","50.5","29.97","331","0","1.2","0.00","0.00"
"00:14:58","54.8","37.4","51.8","29.98","331","0","0","0.00","0.00"
"00:19:56","54.6","37.3","52","29.98","331","0","0","0.00","0.00"
"00:24:58","54.4","37.7","53.2","29.98","331","0","0","0.00","0.00"
"00:29:59","54.1","37.7","53.7","29.98","331","0","0","0.00","0.00"
"00:34:56","53.8","37.9","54.7","29.98","331","0","0","0.00","0.00"
"00:39:59","53.5","38","55.6","29.98","331","0","0","0.00","0.00"
"00:44:57","53","38.2","57","29.99","331","0","0","0.00","0.00"
"00:49:58","52.5","37.8","57.2","29.99","331","0","0","0.00","0.00"
"00:54:59","51.8","37.7","58.6","29.99","331","0.3","3.6","0.00","0.00"
"00:59:57","51.1","38.1","60.8","30.00","331","0","0","0.00","0.00"
"01:04:59","50.9","38.4","62.2","30.00","331","0","0","0.00","0.00"
"01:09:59","50.8","38.9","63.5","30.00","330","0.6","2.4","0.00","0.00"
"01:14:57","51","39.2","64.1","30.00","335","1.3","4.8","0.00","0.00"
"01:19:59","51.3","39.7","64.6","30.00","355","2.1","4.8","0.00","0.00"
"01:24:55","51.7","40","64.4","30.00","355","1.2","3.6","0.00","0.00"
"01:29:57","51.7","40","64.2","30.00","355","0.7","3.6","0.00","0.00"
"01:34:58","51.7","40.3","65","29.99","355","0.7","3.6","0.00","0.00"
"01:39:56","51.7","40.3","65","29.99","341","1.4","6","0.00","0.00"
"01:44:57","51.7","40.4","65.2","30.00","340","1.2","4.6","0.00","0.00"
"01:49:59","51.6","40.6","66","30.00","340","0.8","3.6","0.00","0.00"
"01:54:56","51.4","40.4","66","30.00","339","1.7","3.6","0.00","0.00"
"01:59:58","51.1","40.3","66.4","30.00","327","1.8","4.8","0.00","0.00"
"02:04:59","51","40.4","67","30.00","326","1.3","4.8","0.00","0.00"
"02:09:58","50.8","40.6","67.9","30.00","348","2.4","8.4","0.00","0.00"
"02:14:57","50.8","40.9","68.7","30.01","343","2.6","6","0.00","0.00"
"02:19:58","50.8","41","69","30.01","352","2.1","4.8","0.00","0.00"
"02:24:59","50.9","41.1","69","30.01","355","3","8.4","0.00","0.00"
"02:29:56","51.1","41.3","69","30.01","351","2.5","6","0.00","0.00"
"02:34:58","51.2","41.4","69","30.01","339","2.5","7.2","0.00","0.00"
"02:39:56","51.2","41.4","69","30.01","347","1.8","6.9","0.00","0.00"
"02:44:57","51.2","41.4","69","30.01","355","1.5","4.8","0.00","0.00"
"02:49:59","51","41.2","69","30.01","352","0.7","3.6","0.00","0.00"
"02:54:56","50.8","41","69","30.01","351","0","1.2","0.00","0.00"
"02:59:58","50.6","40.8","69.1","30.02","351","0","0","0.00","0.00"
"03:04:57","50.4","41","70","30.02","351","0.4","2.4","0.00","0.00"
"03:09:57","50.1","40.7","70.2","30.02","351","0.1","1.2","0.00","0.00"
"03:14:56","49.6","40.7","71.4","30.02","351","0.6","2.4","0.00","0.00"
"03:19:57","49.1","40.5","72","30.02","351","0.4","2.4","0.00","0.00"
"03:24:59","48.9","40.3","72","30.02","351","0","0","0.00","0.00"
"03:29:56","48.8","40.3","72.3","30.02","351","0.1","2.4","0.00","0.00"
"03:34:58","48.8","40.5","73","30.01","354","0.7","3.6","0.00","0.00"
"03:39:56","48.9","40.5","72.6","30.01","344","2.5","7.2","0.00","0.00"
"03:44:57","49","40.4","72","30.01","352","2.9","7.2","0.00","0.00"
"03:49:56","49","40.4","72","30.01","355","2.3","4.6","0.00","0.00"
"03:54:58","48.9","40.4","72.2","30.01","353","2.3","4.8","0.00","0.00"
"03:59:57","48.8","40.5","73","30.02","352","2.3","4.8","0.00","0.00"
"04:04:59","48.8","40.4","72.8","30.02","348","1.5","3.6","0.00","0.00"
"04:09:59","48.5","40.2","73","30.02","353","2.3","7.2","0.00","0.00"
"04:14:56","48.4","40.1","73","30.02","344","1.8","6.9","0.00","0.00"
"04:19:56","48.3","40","73","30.02","317","0.9","4.8","0.00","0.00"
"04:24:59","48.2","39.9","73","30.02","289","1.4","4.8","0.00","0.00"
"04:29:57","48.2","40","73","30.04","302","0.1","3.6","0.00","0.00"
"04:34:58","48.2","39.9","73","30.04","325","0.9","4.8","0.00","0.00"
"04:39:57","48.2","39.9","73","30.04","324","0.9","3.6","0.00","0.00"
"04:44:59","48.3","40","73","30.04","324","0.2","2.3","0.00","0.00"
"04:49:57","48.1","39.9","73","30.04","324","0.3","2.4","0.00","0.00"
"04:54:58","47.9","39.7","73","30.04","324","0.3","1.2","0.00","0.00"
"04:59:56","47.7","39.7","73.7","30.06","324","1.1","3.6","0.00","0.00"
"05:04:58","47.6","39.7","74","30.06","325","0.5","2.4","0.00","0.00"
"05:09:58","47.5","39.6","74","30.06","325","0","1.2","0.00","0.00"
"05:14:56","47.3","39.4","74","30.07","325","0","0","0.00","0.00"
"05:19:57","47.1","39.3","74.2","30.07","325","0","0","0.00","0.00"
"05:24:57","46.9","39.3","74.6","30.07","325","0","0","0.00","0.00"
"05:29:58","46.7","39.2","75","30.08","325","0","0","0.00","0.00"
"05:34:58","46.4","38.9","75","30.08","325","0","0","0.00","0.00"
"05:39:57","46","38.9","76","30.08","325","0","0","0.00","0.00"
"05:44:59","45.5","38.9","77.5","30.09","325","0","0","0.00","0.00"
"05:49:57","45.1","38.7","78","30.09","325","0","0","0.00","0.00"
"05:54:58","44.9","38.8","78.9","30.09","325","0","0","0.00","0.00"
"05:59:56","44.8","38.7","79","30.09","325","0","0","0.00","0.00"
"06:04:57","44.7","38.6","79","30.09","325","0","0","0.00","0.00"
"06:09:58","44.7","38.7","79.3","30.09","325","0","0","0.00","0.00"
"06:14:57","44.7","38.6","79","30.09","325","0","0","0.00","0.00"
"06:19:58","44.5","38.4","79","30.09","325","0","0","0.00","0.00"
"06:24:56","44.3","38.3","79.1","30.09","325","0","0","0.00","0.00"
"06:29:58","44.3","38.4","79.6","30.09","325","0","0","0.00","0.00"
"06:34:59","44.1","38.2","79.4","30.09","325","0","0","0.00","0.00"
"06:39:58","43.9","38.1","80","30.09","325","0","0","0.00","0.00"
"06:44:59","43.5","37.8","80.4","30.09","325","0","0","0.00","0.00"
"06:49:57","43.2","37.8","81","30.09","325","0","0","0.00","0.00"
"06:54:59","43.1","37.7","81","30.09","325","0","0","0.00","0.00"
"06:59:57","42.9","37.8","82","30.10","325","0","0","0.00","0.00"
"07:04:58","42.7","37.8","82.6","30.10","325","0","0","0.00","0.00"
"07:09:58","42.6","37.8","83","30.10","325","0","0","0.00","0.00"
"07:14:57","42.5","37.9","83.5","30.10","325","0","0","0.00","0.00"
"07:19:59","42.5","38","84","30.10","325","0","0","0.00","0.00"
"07:24:56","42.7","38.2","84","30.10","321","0","0","0.00","0.00"
"07:29:57","43.3","38.6","83.2","30.11","351","1.5","6","0.00","0.00"
"07:34:58","44.1","39","82","30.11","355","0.6","2.4","0.00","0.00"
"07:39:59","44.8","39.1","80.2","30.11","355","0.5","2.4","0.00","0.00"
"07:44:57","45.5","39.3","78.6","30.11","347","1","3.6","0.00","0.00"
"07:49:55","46.4","39.7","77.5","30.11","347","1.2","6","0.00","0.00"
"07:54:57","47.5","40.1","75.5","30.11","349","0.6","2.4","0.00","0.00"
"07:59:59","48.4","40.5","73.9","30.12","347","1.3","6","0.00","0.00"
"08:04:56","49","40.5","72.3","30.12","355","2.2","6","0.00","0.00"
"08:09:59","49.7","40.7","70.9","30.12","354","1.3","4.8","0.00","0.00"
"08:14:58","50.5","40.7","69","30.13","355","1.1","3.6","0.00","0.00"
"08:19:59","50.9","40.8","68.1","30.13","344","2.8","9.6","0.00","0.00"
"08:24:59","51.3","40.8","67.3","30.13","332","2.6","8.4","0.00","0.00"
"08:29:56","51.4","40.6","66.3","30.13","0","2.7","6.9","0.00","0.00"
"08:34:56","51.9","41.1","66.5","30.13","326","2.1","4.8","0.00","0.00"
"08:39:58","52.3","41.2","65.7","30.13","345","2.8","7.2","0.00","0.00"
"08:44:59","52.4","40.9","64.8","30.14","329","3.6","10.8","0.00","0.00"
"08:49:56","52.8","41.2","64.5","30.14","317","1.7","7.2","0.00","0.00"
"08:54:57","53.1","41.1","63.8","30.14","358","2.9","8.4","0.00","0.00"
"08:59:58","53.6","40.9","62.1","30.14","342","2.9","6","0.00","0.00"
"09:04:58","53.6","41","62.3","30.13","349","3.8","15","0.00","0.00"
"09:09:58","53.7","41.1","62.4","30.13","336","3.2","7.2","0.00","0.00"
"09:14:56","53.8","41","61.6","30.13","347","4.4","9.6","0.00","0.00"
"09:19:57","54.6","41.8","61.9","30.13","349","2.8","10.8","0.00","0.00"
"09:24:58","55.1","41.5","60.1","30.13","347","2.3","9.6","0.00","0.00"
"09:29:59","55.1","41.3","59.6","30.13","350","4.2","10.8","0.00","0.00"
"09:34:56","55.1","41","58.9","30.13","27","3.4","10.8","0.00","0.00"
"09:39:58","55.1","40.8","58.6","30.13","345","4","12","0.00","0.00"
"09:44:59","55.2","40.7","58.1","30.13","330","4.7","12","0.00","0.00"
"09:49:56","55.3","40.4","57.3","30.13","341","5.1","12","0.00","0.00"
"09:54:57","55.7","40.5","56.4","30.13","337","2.2","4.8","0.00","0.00"
"09:59:58","56.5","40.9","55.9","30.13","36","2.5","6","0.00","0.00"
"10:04:58","56.9","40.3","53.8","30.13","342","3.1","12","0.00","0.00"
"10:09:58","56.6","39.7","53","30.13","328","2.4","8.4","0.00","0.00"
"10:14:59","56.5","39.9","53.8","30.13","300","2.8","6","0.00","0.00"
"10:19:56","56.9","39.6","52.4","30.13","329","3.5","7.2","0.00","0.00"
"10:24:57","56.9","39.6","52.2","30.13","334","3.4","6.9","0.00","0.00"
"10:29:58","57","39.7","52.4","30.13","351","2.6","6","0.00","0.00"
"10:34:58","58.1","40.5","52","30.13","10","1.6","4.8","0.00","0.00"
"10:39:56","58.3","40.6","51.6","30.13","322","1.5","4.8","0.00","0.00"
"10:44:57","58.8","40.3","50.4","30.13","2","2.4","7.2","0.00","0.00"
"10:49:58","59.1","39.5","48.2","30.13","354","2.7","7.2","0.00","0.00"
"10:54:58","58.9","39.7","49","30.13","354","2.5","8.4","0.00","0.00"
"10:59:59","59.1","40.3","49.7","30.13","22","2.6","6","0.00","0.00"
"11:04:59","59.3","40.3","49.4","30.13","347","2.4","5.8","0.00","0.00"
"11:09:59","59.7","40.3","48.7","30.13","331","2.2","7.2","0.00","0.00"
"11:14:56","59.5","40.9","50.2","30.13","247","3.3","7.2","0.00","0.00"
"11:19:57","59.8","40.7","49.1","30.12","216","1.5","3.6","0.00","0.00"
"11:24:58","59.8","41","49.8","30.12","133","1.9","3.6","0.00","0.00"
"11:29:59","59.9","40.2","48","30.12","135","2.3","4.8","0.00","0.00"
"11:34:55","59.4","39.3","47.3","30.12","136","1.2","3.6","0.00","0.00"
"11:39:57","59.6","39.8","47.9","30.12","87","1.9","3.6","0.00","0.00"
"11:44:56","60","40.2","48","30.12","57","1.9","4.8","0.00","0.00"
"11:49:59","60.4","41","48.7","30.11","62","2.1","4.8","0.00","0.00"
"11:54:56","60.1","40.5","48.5","30.11","95","2.4","4.8","0.00","0.00"
"11:59:57","60.2","41.1","49.2","30.11","72","2.3","4.8","0.00","0.00"
"12:04:58","60.6","40.1","46.8","30.10","54","2.9","4.8","0.00","0.00"
"12:09:58","60.5","40.9","48.5","30.10","71","2.1","4.8","0.00","0.00"
"12:14:56","60.4","40.2","47.3","30.10","80","2.6","4.8","0.00","0.00"
"12:19:57","60.9","40.6","47.2","30.10","71","1.9","4.8","0.00","0.00"
"12:24:57","60.8","41.3","48.6","30.10","74","2","4.8","0.00","0.00"
"12:29:59","60.6","40","46.5","30.10","74","2.3","4.8","0.00","0.00"
"12:34:59","60.6","40.8","48.2","30.09","73","2.3","3.6","0.00","0.00"
"12:39:57","61","40.7","47.1","30.09","94","2.4","7.2","0.00","0.00"
"12:44:58","61.4","40.7","46.6","30.09","81","2","3.6","0.00","0.00"
"12:49:57","61.4","39.7","44.7","30.08","85","1.7","4.8","0.00","0.00"
"12:54:58","61.5","40.2","45.5","30.08","102","2.8","6","0.00","0.00"
"12:59:59","61.4","40.5","46.1","30.08","89","2.4","5.8","0.00","0.00"
"13:04:56","62.5","41.2","45.7","30.07","58","1.2","6","0.00","0.00"
"13:09:56","62.2","39.5","43.3","30.07","71","2.5","5.8","0.00","0.00"
"13:14:59","62","40.4","45.1","30.07","148","2.4","7.2","0.00","0.00"
"13:19:56","62.9","40.5","43.7","30.06","339","1.2","4.8","0.00","0.00"
"13:24:56","63.2","39.8","42.2","30.06","330","2.4","7.2","0.00","0.00"
"13:29:57","63.5","40.1","42.3","30.06","332","2.3","4.8","0.00","0.00"
"13:34:58","63.4","40.1","42.4","30.06","55","1","3.6","0.00","0.00"
"13:39:56","63","39.7","42.4","30.06","90","2.7","6","0.00","0.00"
"13:44:57","62.5","39.6","42.9","30.06","92","1.6","4.8","0.00","0.00"
"13:49:58","63.7","40.5","42.6","30.06","92","1.5","3.6","0.00","0.00"
"13:54:59","63.7","38.9","40","30.06","97","2","4.8","0.00","0.00"
"13:59:59","63.3","39.4","41.3","30.06","109","2.2","4.8","0.00","0.00"
"14:04:56","63.5","39.8","41.7","30.05","97","2.2","4.8","0.00","0.00"
"14:09:59","63.7","39.3","40.5","30.05","39","1.2","3.6","0.00","0.00"
"14:14:57","63.8","38.7","39.6","30.05","90","1.8","6","0.00","0.00"
"14:19:59","63.8","39.5","40.9","30.05","34","1.2","4.8","0.00","0.00"
"14:24:59","63.4","38.5","39.7","30.05","108","2.5","6","0.00","0.00"
"14:29:56","63.1","37.9","39.3","30.05","117","2.6","5.8","0.00","0.00"
"14:34:57","63.9","38.6","39.3","30.04","104","3.1","6","0.00","0.00"
"14:39:59","63.4","38.4","39.8","30.04","68","3.4","4.8","0.00","0.00"
"14:44:56","63.9","38.8","39.6","30.04","84","1.2","3.5","0.00","0.00"
"14:49:57","64.1","37.8","37.8","30.03","83","0.8","2.4","0.00","0.00"
"14:54:57","64.2","37.8","37.6","30.03","66","2.2","4.8","0.00","0.00"
"14:59:58","63.3","37.3","38.1","30.03","83","1.7","4.6","0.00","0.00"
"15:04:59","63.7","37.9","38.5","30.03","104","1.9","3.6","0.00","0.00"
"15:09:59","63.8","37.7","38","30.03","97","2.9","6","0.00","0.00"
"15:14:57","63.5","38","38.8","30.03","86","2.2","4.6","0.00","0.00"
"15:19:58","64.1","37.2","36.8","30.03","15","1.1","3.6","0.00","0.00"
"15:24:58","64.1","36.7","36.2","30.03","14","1.2","3.6","0.00","0.00"
"15:29:59","63.8","37.7","38","30.03","14","1.8","4.8","0.00","0.00"
"15:34:56","63.6","37.7","38.3","30.03","199","2.7","6","0.00","0.00"
"15:39:58","63.2","37","37.8","30.03","166","2.1","3.6","0.00","0.00"
"15:44:59","63.4","37.3","37.9","30.03","144","2","4.8","0.00","0.00"
"15:49:56","63.1","37.2","38.1","30.02","133","2.5","6","0.00","0.00"
"15:54:56","62.9","37.4","38.8","30.02","115","2","4.8","0.00","0.00"
"15:59:57","62.9","37.7","39.4","30.03","110","1.4","3.6","0.00","0.00"
"16:04:58","63","38.2","39.8","30.03","110","0.9","2.4","0.00","0.00"
"16:09:58","63.1","37.5","38.7","30.03","110","0.8","2.4","0.00","0.00"
"16:14:56","63.4","37.9","38.9","30.03","121","0.9","2.4","0.00","0.00"
"16:19:57","63.7","37.8","38.2","30.03","125","0.9","2.4","0.00","0.00"
"16:24:57","63.8","38","38.5","30.03","125","0.4","2.3","0.00","0.00"
"16:29:59","63.6","37.7","38.2","30.03","125","0","0","0.00","0.00"
"16:34:59","63.3","37.4","38.3","30.03","126","0","0","0.00","0.00"
"16:39:58","62.9","37.1","38.3","30.03","125","0.2","2.4","0.00","0.00"
"16:44:56","62.4","37.4","39.5","30.03","126","0","0","0.00","0.00"
"16:49:57","61.9","37.3","40","30.02","126","0","0","0.00","0.00"
"16:54:58","61.4","37.4","40.9","30.02","126","0","0","0.00","0.00"
"16:59:56","60.9","37.3","41.5","30.02","126","0","0","0.00","0.00"
"17:04:57","60.4","37.4","42.3","30.02","126","0","0","0.00","0.00"
"17:09:57","59.9","37.4","43.1","30.02","121","2","7.2","0.00","0.00"
"17:14:59","59.6","37.9","44.5","30.02","133","2.7","5.8","0.00","0.00"
"17:19:57","59.4","38","45.1","30.02","121","1.8","4.6","0.00","0.00"
"17:24:58","59.2","38.4","46","30.02","121","1.3","4.8","0.00","0.00"
"17:29:59","59","38.2","46","30.02","124","1.7","4.6","0.00","0.00"
"17:34:56","58.9","38.1","46","30.02","120","1.7","4.8","0.00","0.00"
"17:39:58","58.8","38.1","46","30.02","119","2","3.6","0.00","0.00"
"17:44:59","58.7","38","46.2","30.02","119","1.5","4.8","0.00","0.00"
"17:49:57","58.5","38","46.4","30.02","120","1.8","4.8","0.00","0.00"
"17:54:57","58.2","38.1","47","30.02","119","1.9","4.8","0.00","0.00"
"17:59:58","58","37.9","47","30.02","119","1.6","3.6","0.00","0.00"
"18:04:57","57.7","38.1","47.9","30.01","119","1.1","3.6","0.00","0.00"
"18:09:57","57.5","37.9","48","30.01","119","0.7","2.4","0.00","0.00"
"18:14:59","57.3","37.8","48","30.01","119","0.2","2.4","0.00","0.00"
"18:19:57","57.1","37.8","48.5","30.01","119","0.3","2.4","0.00","0.00"
"18:24:59","56.8","37.8","49","30.01","119","0.5","2.4","0.00","0.00"
"18:29:56","56.6","37.9","49.6","30.02","119","0.4","1.2","0.00","0.00"
"18:34:58","56.3","37.9","50","30.02","119","0.6","2.4","0.00","0.00"
"18:39:56","56","37.9","50.7","30.02","119","0","1.2","0.00","0.00"
"18:44:57","55.4","38.2","52.2","30.02","119","0","0","0.00","0.00"
"18:49:59","54.7","37.9","53.1","30.02","119","0","0","0.00","0.00"
"18:54:57","53.9","38.3","55.4","30.02","119","0","0","0.00","0.00"
"18:59:58","53.2","38.2","56.6","30.02","119","0.4","3.6","0.00","0.00"
"19:04:59","52.8","38","57.1","30.02","119","0","0","0.00","0.00"
"19:09:56","52.4","38.3","58.5","30.02","119","0","1.2","0.00","0.00"
"19:14:59","52.1","38","58.3","30.02","119","0.2","1.2","0.00","0.00"
"19:19:57","52","37.9","58.5","30.02","119","0.1","1.2","0.00","0.00"
"19:24:59","51.8","38.2","59.8","30.02","119","0","0","0.00","0.00"
"19:29:57","51.5","38.1","60.1","30.02","119","0","0","0.00","0.00"
"19:34:59","51.2","37.8","60.1","30.02","119","0.3","2.4","0.00","0.00"
"19:39:57","51.2","37.8","60","30.02","119","0.2","1.2","0.00","0.00"
"19:44:59","51.4","38","60.2","30.02","119","0","1.2","0.00","0.00"
"19:49:58","51.5","38.1","60","30.02","119","0","0","0.00","0.00"
"19:54:59","51.5","38.3","60.5","30.02","119","0.1","1.2","0.00","0.00"
"19:59:57","51.4","38.4","61","30.02","119","0","1.2","0.00","0.00"
"20:04:58","51.2","38.5","61.8","30.01","119","0","0","0.00","0.00"
"20:09:59","50.9","38.5","62.4","30.01","119","0.3","3.6","0.00","0.00"
"20:14:57","50.7","38.9","63.6","30.01","106","0.8","4.8","0.00","0.00"
"20:19:58","50.8","39.8","66","30.01","92","1.6","4.8","0.00","0.00"
"20:24:55","51.3","40.3","66","30.01","110","1.6","4.8","0.00","0.00"
"20:29:57","51.8","40.7","65.8","30.01","131","1.8","6","0.00","0.00"
"20:34:59","52.3","40.9","65","30.01","95","1.9","5.8","0.00","0.00"
"20:39:57","52.4","41","65","30.01","95","0.4","2.4","0.00","0.00"
"20:44:59","52.3","40.9","65","30.01","95","0.8","3.6","0.00","0.00"
"20:49:56","52.2","40.8","65","30.01","95","1.1","3.6","0.00","0.00"
"20:54:57","52.1","40.7","65","30.01","95","1","3.6","0.00","0.00"
"20:59:58","52","40.5","64.8","30.01","102","1.2","4.8","0.00","0.00"
"21:04:56","51.9","40.3","64.3","30.01","102","0.3","2.4","0.00","0.00"
"21:09:56","51.9","40.1","64","30.01","102","0","0","0.00","0.00"
"21:14:59","51.7","39.9","64","30.01","102","0","0","0.00","0.00"
"21:19:56","51.5","39.7","64","30.00","102","0","0","0.00","0.00"
"21:24:58","51.4","40","64.9","30.00","102","0","0","0.00","0.00"
"21:29:59","51.2","39.8","65","30.00","102","0","0","0.00","0.00"
"21:34:56","50.9","39.8","65.7","30.00","102","0","0","0.00","0.00"
"21:39:59","50.7","39.7","66","30.00","102","0","0","0.00","0.00"
"21:44:57","50.5","39.8","66.6","30.00","102","0","0","0.00","0.00"
"21:49:58","50.2","39.7","67","29.99","102","0","0","0.00","0.00"
"21:54:56","49.9","39.8","67.9","29.99","115","0","2.4","0.00","0.00"
"21:59:57","49.9","39.9","68.4","29.99","115","0.6","2.4","0.00","0.00"
"22:04:58","50","40","68.5","29.98","115","0.9","2.4","0.00","0.00"
"22:09:58","50.2","40.3","68.8","29.98","117","1.5","4.8","0.00","0.00"
"22:14:56","50.4","40.2","68","29.98","124","1.6","4.8","0.00","0.00"
"22:19:58","50.5","40.3","68","29.98","128","0.7","2.4","0.00","0.00"
"22:24:59","50.6","40.4","68","29.98","128","0.1","1.2","0.00","0.00"
"22:29:57","50.5","40.3","68","29.98","128","0","1.2","0.00","0.00"
"22:34:58","50.4","40.3","68.4","29.98","128","0","0","0.00","0.00"
"22:39:57","50.3","40.5","69","29.98","128","0","0","0.00","0.00"
"22:44:59","49.9","40.1","69","29.98","128","0","0","0.00","0.00"
"22:49:56","49.3","39.8","69.6","29.98","128","0","0","0.00","0.00"
"22:54:58","48.8","39.8","71","29.98","128","0","1.2","0.00","0.00"
"22:59:59","48.2","39.6","71.8","29.98","128","0.2","2.4","0.00","0.00"
"23:04:56","47.9","39.8","73.2","29.97","128","0","0","0.00","0.00"
"23:09:56","47.8","39.9","74","29.97","128","0","1.2","0.00","0.00"
"23:14:59","47.6","39.7","74","29.97","128","0","1.2","0.00","0.00"
"23:19:57","47.3","39.7","74.7","29.97","128","0","0","0.00","0.00"
"23:24:58","47.1","39.6","75","29.97","128","0","0","0.00","0.00"
"23:29:56","46.8","39.6","76","29.97","128","0","0","0.00","0.00"
"23:34:57","46.5","39.2","75.6","29.97","128","0","0","0.00","0.00"
"23:39:59","46.1","39.1","76.5","29.97","128","0","0","0.00","0.00"
"23:44:57","45.7","38.9","77","29.97","128","0","0","0.00","0.00"
"23:49:58","45.3","38.8","78","29.97","128","0","0","0.00","0.00"
"23:54:55","44.9","38.8","78.8","29.97","128","0","0","0.00","0.00"
